Wetbulb
50.14 52.12 56.33 60.87 63.96 65.72 66.93 68.28 69.73 71.31 72.47 73.55 73.42 72.97 73.03 73.94 73.79 74.43 74.29 74.14 74.37 73.77 73.76 73.36 73.48 73.42 72.82 72.60 73.32 73.34 73.05 72.42 72.01 72.03 71.59 70.71 70.25 70.11 70.14 70.88 70.52 67.68 69.95
50.42 51.70 55.64 60.12 62.83 64.40 65.85 67.06 68.13 69.84 71.09 72.26 72.98 72.30 72.40 73.67 73.71 73.32 73.15 73.10 73.13 73.12 73.85 73.60 73.43 73.13 72.95 73.45 73.44 72.90 72.38 71.81 71.41 71.49 71.42 70.30 70.24 69.85 69.27 70.43 69.50 69.34 69.51
50.48 50.24 51.97 59.06 61.13 63.07 64.45 65.69 66.67 68.10 69.68 70.70 71.72 71.94 71.70 73.13 72.90 72.53 72.66 72.25 73.32 73.55 73.79 73.64 73.60 73.33 72.95 72.82 72.69 72.32 71.86 71.35 71.22 71.12 71.49 69.05 68.58 69.11 68.40 68.77 69.29 68.94 68.86
49.78 49.60 50.43 57.29 58.53 61.14 63.17 64.04 65.12 66.38 67.70 68.80 70.15 71.19 71.19 71.73 70.95 70.63 70.65 71.21 72.50 73.08 73.44 73.50 73.21 73.10 72.59 72.56 71.87 71.63 71.45 71.18 70.91 70.58 69.40 68.80 67.71 68.57 67.55 67.52 68.59 68.40 68.58
48.87 49.38 50.00 55.61 56.87 58.77 60.38 62.11 63.41 64.03 65.33 66.65 67.51 69.32 70.61 71.12 71.30 70.34 69.68 70.50 71.02 70.89 71.49 72.23 72.77 72.79 72.17 71.56 71.15 71.07 70.86 70.39 70.35 70.31 68.65 68.31 67.62 68.16 67.54 68.00 68.85 68.30 68.68
48.60 49.20 51.04 54.43 55.37 56.47 58.39 60.09 61.56 61.69 63.22 64.51 65.56 66.73 68.91 70.32 70.02 70.13 69.00 69.10 70.20 68.35 69.51 70.06 71.19 72.01 71.21 70.74 70.59 70.36 69.89 70.03 70.02 68.26 68.26 68.50 67.39 67.94 67.47 68.34 68.77 68.60 68.24
49.60 50.58 49.57 54.24 54.82 54.75 56.05 57.77 59.49 60.60 61.02 62.52 63.46 64.36 66.31 68.36 69.87 70.07 69.38 69.42 69.66 69.55 69.94 70.33 70.80 70.60 70.68 70.49 70.18 69.60 69.36 69.66 68.61 68.65 68.44 67.73 67.15 67.23 68.26 68.22 68.21 68.23 67.75
51.22 50.49 51.36 53.07 54.53 54.50 54.35 55.85 56.31 58.85 59.43 60.44 61.67 62.76 63.72 65.81 67.20 68.52 69.13 69.56 69.95 69.83 69.77 69.79 70.09 70.02 70.05 70.02 69.44 68.75 68.53 68.67 69.51 69.28 68.24 66.96 67.44 67.49 68.34 67.61 67.74 67.82 67.09
51.89 51.87 52.60 52.63 52.24 54.55 53.00 54.45 54.83 56.22 57.23 59.16 59.86 60.96 61.82 63.42 65.73 67.47 67.83 69.29 69.73 69.25 69.06 69.09 69.25 69.46 69.39 69.46 68.86 68.01 67.74 68.61 68.91 68.50 67.74 66.84 67.73 66.93 68.14 67.34 66.52 66.69 66.60
51.29 51.17 51.52 52.16 52.08 52.87 53.97 54.14 54.50 54.49 55.22 57.01 57.95 59.32 61.17 61.90 62.91 65.69 66.61 67.36 68.23 69.48 68.82 68.78 69.03 68.71 68.98 68.69 67.92 67.38 67.29 67.93 68.98 68.57 68.02 67.10 68.12 66.71 68.02 67.02 66.45 66.23 66.06
49.12 50.04 50.97 50.83 51.53 53.07 52.66 52.99 53.58 54.05 53.45 53.86 55.79 56.26 58.21 60.50 60.09 61.06 64.38 65.73 67.90 69.10 69.05 69.15 68.50 68.31 68.06 67.16 67.12 67.28 67.32 68.61 67.40 68.38 67.93 67.41 68.24 67.54 67.73 66.66 66.83 66.61 65.92
47.00 48.44 49.33 50.12 49.98 51.05 50.14 52.60 54.11 53.11 51.17 50.93 52.39 52.97 54.89 58.19 59.19 59.38 62.43 63.97 67.79 68.58 68.54 68.19 68.21 67.95 67.66 67.84 68.19 67.16 67.84 68.65 68.19 68.30 67.25 67.54 68.14 67.25 67.29 66.57 66.39 66.06 65.68
46.74 47.45 47.96 49.02 50.01 49.62 49.40 50.52 51.10 52.45 53.05 51.47 51.59 51.68 51.47 53.48 57.85 57.55 59.01 59.97 63.29 68.58 67.97 67.89 67.60 67.08 67.86 67.54 67.16 69.31 68.33 67.95 68.22 67.27 66.16 67.17 67.72 66.95 66.86 65.51 65.24 65.58 65.34
45.86 46.54 47.39 47.77 48.74 49.23 49.08 49.21 50.17 50.72 51.97 52.21 50.97 51.47 50.99 49.91 52.44 54.98 56.03 56.57 60.18 64.71 68.56 68.15 67.81 67.12 68.44 67.38 66.76 67.42 68.93 67.70 68.14 66.77 66.30 66.59 66.92 67.32 66.60 65.69 64.61 64.85 65.12
44.98 46.27 47.20 47.75 48.07 48.22 48.58 48.73 49.41 50.14 50.67 52.36 52.11 50.76 50.53 48.65 49.84 51.67 54.71 54.84 56.88 61.04 65.04 66.85 66.48 66.32 67.82 66.58 66.05 65.89 65.99 68.43 67.01 66.99 66.79 65.58 65.71 67.12 66.64 65.68 65.17 65.68 64.99
45.45 45.56 47.11 46.88 48.04 47.95 47.93 48.65 48.55 49.70 50.53 51.41 52.16 51.26 51.61 50.01 48.86 49.34 51.10 53.65 54.52 56.12 58.46 61.98 66.61 68.79 66.42 65.69 64.79 65.40 65.05 66.68 68.12 66.79 66.69 66.28 64.64 65.64 66.28 65.87 65.11 65.80 65.01
45.39 45.71 46.33 46.80 47.69 47.53 47.64 47.65 47.93 48.59 49.55 50.34 51.25 51.49 50.69 50.94 49.14 48.21 49.70 51.83 52.00 53.00 55.34 59.30 65.98 67.56 66.84 65.24 64.07 64.77 65.33 66.08 67.84 67.28 67.15 66.19 65.06 63.44 64.34 65.52 65.44 65.75 64.87
45.10 45.17 46.05 46.00 46.69 46.93 47.01 46.98 46.87 47.65 48.42 49.47 50.62 50.98 49.94 50.05 48.39 48.09 48.16 50.43 51.56 52.08 54.07 57.76 63.83 65.87 65.37 64.56 62.09 62.35 63.96 67.46 67.23 67.45 66.80 66.30 65.75 64.03 63.40 63.93 65.29 65.65 65.44
45.14 45.37 45.26 46.14 45.70 46.12 46.49 46.48 46.88 47.80 47.74 48.84 49.98 50.42 49.51 49.30 49.14 47.95 48.04 48.55 50.74 51.71 52.10 55.60 60.76 65.17 64.66 63.38 62.26 62.04 62.70 64.44 67.49 67.25 65.07 66.56 66.64 65.80 64.37 62.97 62.62 63.94 64.67
45.61 45.72 45.60 45.59 45.82 46.02 45.64 45.71 45.72 45.80 46.64 47.84 49.04 49.48 50.02 47.88 49.24 48.83 48.43 48.23 49.51 49.90 50.39 52.17 54.96 63.83 61.87 61.48 61.45 62.42 62.38 64.95 66.28 67.32 65.85 65.06 65.75 65.30 65.19 64.17 63.69 62.73 63.08
45.61 45.12 44.87 44.17 45.15 44.70 43.51 43.01 43.37 43.28 44.74 46.09 47.90 49.24 49.59 47.79 48.66 48.83 47.73 47.27 48.17 48.43 48.94 50.57 52.45 58.74 61.75 60.51 59.35 62.71 62.55 63.60 65.50 66.00 67.63 66.13 65.44 65.43 65.46 64.78 63.73 63.04 62.00
44.71 44.68 44.56 44.21 44.58 44.34 42.96 43.48 43.86 44.05 44.56 45.61 47.24 48.51 49.37 48.33 47.46 48.16 47.81 47.71 47.61 47.92 48.68 49.48 50.84 56.44 61.87 61.47 57.12 58.35 56.80 60.02 64.38 64.93 67.90 65.68 65.36 64.78 64.38 64.83 64.87 63.95 63.49
44.16 44.35 43.91 44.06 44.36 44.08 44.36 43.47 43.62 44.41 44.46 44.30 45.11 46.66 48.03 48.67 47.58 47.76 47.33 47.74 48.31 48.45 47.89 48.47 49.84 52.22 58.93 62.15 61.27 58.16 55.03 55.05 59.42 64.60 65.46 65.75 65.03 64.53 64.76 64.48 64.35 63.92 64.79
43.83 44.59 44.01 44.10 43.81 43.54 44.18 42.97 42.43 41.15 40.57 42.69 44.39 46.47 47.52 48.72 48.06 47.38 48.10 48.38 47.84 47.51 47.48 47.59 48.90 49.50 53.61 58.43 60.81 61.04 61.00 60.26 57.38 57.59 62.99 64.55 65.92 64.86 64.31 64.17 63.56 63.75 63.38
43.70 43.66 43.63 43.76 43.15 43.63 43.61 43.03 41.81 41.10 41.98 43.26 44.31 45.64 47.39 48.46 47.45 46.92 47.87 48.07 46.60 46.46 46.92 46.53 47.10 48.07 51.30 54.87 59.52 60.48 59.87 60.26 59.70 58.76 56.87 59.88 63.69 64.08 64.00 64.58 64.06 63.74 64.44
43.31 43.62 43.35 43.06 42.57 42.93 42.86 43.07 42.42 41.73 41.24 41.73 42.51 42.05 43.99 46.15 46.09 46.25 47.23 47.48 47.23 45.57 45.58 46.20 46.80 47.55 50.28 52.45 54.05 61.55 59.57 58.05 58.66 57.95 57.64 58.48 60.54 62.93 63.95 63.95 64.77 64.32 63.94
MSLP
1025.11 1024.71 1023.76 1022.36 1020.92 1019.62 1018.51 1017.70 1017.00 1016.29 1015.66 1014.83 1014.65 1014.74 1014.73 1014.82 1014.98 1014.97 1014.98 1014.94 1014.99 1015.22 1015.38 1015.55 1015.69 1015.84 1016.05 1015.99 1016.20 1016.45 1016.54 1016.70 1017.03 1017.28 1017.46 1017.79 1017.88 1017.97 1018.06 1018.16 1018.03 1018.51 1019.03
1026.10 1025.31 1024.10 1023.15 1021.76 1020.42 1019.38 1018.42 1017.65 1016.89 1016.22 1015.59 1015.08 1015.03 1014.93 1014.99 1015.12 1015.19 1015.22 1015.20 1015.25 1015.36 1015.52 1015.81 1015.94 1016.09 1016.28 1016.46 1016.64 1016.89 1017.00 1017.26 1017.56 1017.77 1017.90 1018.28 1018.39 1018.53 1018.60 1018.52 1018.51 1019.22 1019.51
1026.06 1025.69 1024.32 1023.56 1022.39 1021.04 1019.84 1018.97 1018.24 1017.57 1016.99 1016.47 1015.80 1015.33 1015.25 1015.23 1015.38 1015.45 1015.53 1015.50 1015.46 1015.60 1015.79 1015.99 1016.21 1016.40 1016.63 1016.85 1016.99 1017.15 1017.43 1017.67 1017.86 1017.95 1017.95 1018.00 1018.55 1019.00 1018.96 1019.12 1019.46 1019.76 1019.93
1025.71 1025.05 1025.11 1023.98 1022.51 1021.53 1020.54 1019.60 1018.88 1018.36 1017.80 1017.14 1016.65 1016.12 1015.60 1015.51 1015.59 1015.83 1015.80 1015.98 1015.81 1016.04 1016.13 1016.21 1016.41 1016.66 1017.13 1017.16 1017.34 1017.47 1017.73 1017.91 1017.96 1017.87 1017.84 1018.41 1018.81 1019.43 1019.44 1019.63 1019.87 1020.18 1020.33
1026.46 1026.37 1025.44 1024.20 1022.74 1022.10 1021.32 1020.43 1019.55 1019.06 1018.52 1017.85 1017.38 1016.80 1016.39 1015.74 1015.82 1016.00 1016.24 1016.24 1016.48 1016.46 1016.43 1016.55 1016.73 1016.95 1017.36 1017.50 1017.63 1017.70 1017.91 1017.92 1017.94 1017.81 1017.96 1018.61 1018.95 1019.66 1019.79 1019.93 1020.24 1020.41 1020.37
1026.02 1025.92 1025.26 1024.18 1023.35 1022.40 1021.61 1021.02 1020.50 1019.87 1019.16 1018.49 1018.09 1017.46 1016.91 1016.33 1015.89 1016.00 1016.46 1016.66 1016.73 1017.16 1017.08 1017.17 1017.12 1017.32 1017.54 1017.72 1017.81 1017.89 1017.91 1018.00 1018.18 1018.05 1018.51 1019.23 1019.17 1019.89 1020.09 1020.21 1020.49 1020.77 1021.17
1025.15 1024.90 1024.56 1023.84 1023.22 1022.98 1022.17 1021.67 1020.98 1020.38 1019.75 1019.04 1018.46 1017.94 1017.46 1016.96 1016.56 1016.32 1016.27 1016.74 1016.97 1017.11 1017.27 1017.29 1017.37 1017.56 1017.75 1017.96 1018.02 1018.02 1017.90 1018.08 1018.01 1017.78 1018.90 1019.50 1019.78 1020.19 1020.40 1020.62 1020.77 1021.15 1021.61
1024.62 1024.56 1023.94 1024.39 1023.14 1023.52 1022.59 1022.18 1021.62 1020.97 1020.46 1019.72 1018.97 1018.46 1018.04 1017.61 1017.16 1017.12 1017.15 1016.94 1016.86 1016.91 1017.12 1017.49 1017.46 1017.79 1017.84 1018.23 1018.20 1018.10 1017.97 1017.85 1017.70 1017.70 1018.84 1019.75 1020.30 1020.49 1020.70 1020.96 1021.18 1021.53 1021.91
1024.52 1024.69 1024.88 1024.45 1023.95 1023.04 1022.84 1022.46 1021.79 1021.57 1021.25 1020.45 1019.88 1019.17 1018.68 1018.20 1017.79 1017.45 1017.37 1016.87 1016.80 1016.88 1017.03 1017.59 1017.58 1017.78 1017.93 1018.33 1018.45 1018.26 1017.99 1017.93 1017.50 1016.93 1018.44 1019.80 1020.57 1020.73 1020.92 1021.21 1021.51 1021.85 1022.16
1024.28 1024.46 1024.34 1024.18 1023.92 1023.34 1022.61 1022.10 1022.03 1022.00 1021.66 1020.94 1020.78 1019.79 1019.08 1018.45 1018.26 1017.87 1017.44 1017.19 1017.14 1016.89 1017.16 1017.19 1017.57 1017.73 1017.95 1018.31 1018.49 1018.40 1018.14 1017.72 1017.04 1017.10 1018.31 1019.64 1020.54 1020.83 1021.10 1021.41 1021.71 1022.07 1022.40
1024.08 1024.41 1024.27 1024.32 1024.03 1023.48 1022.42 1022.14 1022.11 1021.94 1022.09 1022.09 1021.05 1020.51 1019.71 1019.12 1018.85 1018.39 1017.85 1017.29 1016.67 1016.55 1016.73 1017.10 1017.43 1017.84 1018.16 1018.38 1018.72 1018.58 1018.27 1017.03 1016.23 1017.63 1018.71 1020.10 1020.61 1020.91 1021.21 1021.53 1021.88 1022.28 1022.64
1024.29 1024.67 1024.54 1024.55 1024.46 1023.93 1022.95 1022.66 1021.94 1021.88 1022.15 1022.46 1022.07 1021.57 1020.69 1019.89 1019.46 1019.02 1018.29 1017.55 1016.58 1016.57 1016.87 1017.22 1017.52 1017.85 1018.19 1018.54 1018.84 1018.77 1018.11 1017.21 1017.31 1017.77 1018.83 1020.22 1020.71 1020.99 1021.39 1021.73 1022.05 1022.42 1022.86
1024.51 1024.97 1025.06 1024.75 1024.88 1024.38 1023.64 1023.19 1022.57 1021.88 1021.71 1022.29 1022.42 1022.26 1021.85 1020.80 1020.01 1019.60 1018.95 1018.18 1017.25 1016.63 1016.68 1017.11 1017.39 1017.38 1017.70 1018.47 1018.71 1018.41 1017.84 1017.39 1017.37 1018.40 1019.58 1020.25 1020.74 1021.04 1021.50 1021.89 1022.18 1022.54 1022.96
1024.68 1025.18 1025.45 1025.20 1025.34 1024.92 1024.32 1023.78 1023.21 1022.49 1022.18 1021.88 1022.35 1022.53 1021.86 1022.04 1021.18 1020.40 1019.64 1018.99 1018.30 1017.50 1016.39 1016.28 1016.44 1016.56 1017.03 1018.28 1018.58 1018.78 1018.14 1017.33 1017.46 1018.71 1019.85 1020.25 1020.73 1021.06 1021.45 1021.89 1022.25 1022.62 1023.09
1024.83 1025.26 1025.84 1025.61 1025.70 1025.35 1024.73 1024.45 1023.71 1022.94 1022.62 1022.14 1022.16 1022.68 1022.49 1022.40 1021.61 1020.99 1020.28 1019.81 1019.24 1018.11 1017.74 1016.97 1016.40 1016.40 1017.37 1018.21 1018.79 1019.02 1018.59 1017.49 1017.80 1018.64 1019.51 1020.29 1020.78 1021.14 1021.49 1021.86 1022.26 1022.65 1023.15
1025.04 1025.16 1025.88 1025.92 1025.85 1025.72 1025.15 1024.86 1023.98 1023.12 1023.06 1022.20 1022.02 1022.67 1022.57 1022.12 1022.28 1020.93 1020.73 1020.17 1019.58 1018.96 1018.71 1017.84 1017.14 1016.46 1017.47 1018.17 1018.75 1018.90 1018.82 1018.19 1017.11 1018.46 1019.24 1020.21 1020.86 1021.22 1021.56 1021.82 1022.22 1022.69 1023.17
1024.77 1025.05 1025.76 1025.83 1025.90 1025.97 1025.26 1024.88 1024.12 1023.30 1023.11 1022.34 1022.22 1022.67 1022.63 1022.52 1022.49 1022.03 1021.24 1020.49 1019.81 1019.58 1018.93 1018.03 1016.90 1016.56 1017.04 1018.14 1018.69 1019.05 1019.09 1018.56 1017.40 1018.40 1018.88 1019.66 1020.76 1021.34 1021.63 1021.85 1022.17 1022.63 1023.07
1024.60 1024.93 1025.61 1025.70 1025.94 1026.16 1025.45 1024.83 1024.26 1023.58 1023.17 1022.41 1022.16 1022.24 1022.92 1022.65 1022.57 1022.28 1021.86 1020.98 1020.23 1019.80 1019.33 1018.36 1017.28 1016.66 1016.93 1017.97 1018.49 1018.96 1019.25 1018.73 1018.11 1018.01 1018.59 1019.24 1020.10 1020.74 1021.57 1021.84 1022.25 1022.61 1023.06
1024.38 1024.74 1025.14 1025.50 1025.63 1026.03 1025.65 1024.82 1024.34 1023.80 1023.02 1022.46 1022.10 1022.07 1022.77 1022.59 1022.38 1022.33 1021.90 1021.40 1020.84 1020.14 1019.44 1018.56 1017.48 1016.03 1016.98 1017.81 1018.15 1018.66 1018.96 1018.69 1017.86 1017.82 1018.58 1018.91 1019.43 1020.05 1020.74 1021.72 1022.23 1022.69 1023.04
1024.22 1024.51 1024.76 1025.14 1025.46 1025.76 1025.37 1024.62 1024.16 1023.83 1023.26 1022.64 1022.06 1022.00 1022.39 1022.89 1022.48 1022.41 1021.94 1021.55 1020.94 1020.27 1019.62 1019.00 1018.33 1017.34 1017.53 1017.65 1018.10 1018.07 1018.38 1018.22 1016.88 1017.90 1018.23 1018.96 1019.38 1019.95 1020.08 1020.89 1021.84 1022.53 1023.02
1023.62 1024.08 1024.55 1024.90 1025.46 1025.45 1025.12 1024.69 1024.21 1023.88 1023.57 1022.75 1022.18 1022.08 1022.15 1022.68 1022.55 1022.02 1021.89 1021.88 1021.26 1020.66 1020.06 1019.35 1018.74 1017.65 1017.26 1017.67 1018.45 1018.22 1018.37 1018.25 1017.89 1017.64 1017.85 1018.65 1019.07 1019.34 1019.68 1020.25 1021.10 1022.08 1022.79
1022.81 1023.39 1024.22 1024.57 1024.99 1025.36 1025.25 1025.10 1024.66 1024.18 1023.73 1023.00 1022.27 1022.08 1021.81 1022.18 1022.51 1022.05 1021.98 1021.89 1021.67 1021.05 1020.21 1019.36 1019.03 1017.68 1016.76 1017.20 1018.02 1018.71 1018.81 1018.68 1018.01 1017.85 1017.82 1018.57 1018.91 1019.07 1019.49 1019.89 1020.34 1021.43 1021.80
1022.30 1022.74 1023.62 1024.29 1024.77 1025.21 1025.50 1025.05 1024.74 1024.13 1023.46 1022.85 1022.54 1021.81 1021.74 1021.76 1022.16 1022.22 1022.20 1022.01 1021.45 1021.31 1020.45 1019.62 1019.17 1018.62 1016.84 1016.73 1017.42 1017.92 1018.57 1018.01 1017.77 1017.87 1018.10 1018.50 1018.70 1018.98 1019.24 1019.50 1019.73 1020.03 1020.46
1022.34 1022.78 1023.51 1024.55 1024.73 1024.96 1025.16 1025.04 1024.98 1024.32 1023.66 1023.40 1022.67 1021.89 1021.63 1021.36 1021.57 1022.06 1021.97 1021.73 1021.69 1021.15 1020.71 1020.07 1019.04 1018.87 1018.22 1016.54 1016.66 1017.32 1017.42 1017.38 1017.24 1017.73 1018.13 1018.22 1018.47 1018.68 1019.08 1019.43 1019.91 1019.89 1020.24
1022.82 1022.90 1023.67 1024.64 1024.80 1025.31 1025.17 1025.23 1024.95 1024.49 1024.08 1023.47 1022.81 1022.16 1021.43 1020.99 1021.74 1021.87 1021.79 1021.52 1021.39 1021.18 1020.73 1020.02 1019.12 1018.92 1018.16 1017.74 1016.65 1016.73 1017.28 1017.52 1017.38 1017.38 1017.48 1018.03 1018.29 1018.54 1018.76 1018.96 1019.37 1019.88 1019.90
1022.80 1023.28 1023.84 1024.61 1024.92 1024.97 1025.06 1025.12 1024.98 1024.67 1024.42 1023.72 1023.11 1023.09 1022.60 1021.86 1021.76 1022.03 1021.80 1021.62 1021.36 1021.44 1020.75 1020.11 1019.26 1018.97 1018.68 1018.04 1017.11 1016.14 1016.46 1016.66 1016.93 1017.13 1017.49 1017.62 1017.73 1017.91 1018.39 1018.60 1018.90 1019.34 1019.73
Wind_Speed
15 23 32 34 34 31 30 28 27 22 23 21 5 6 7 7 7 6 7 8 9 11 13 12 12 12 12 14 14 15 16 17 18 18 18 17 17 15 13 11 14 15 16
17 22 29 32 31 30 28 28 27 27 24 24 3 4 6 6 7 7 7 8 9 11 13 13 13 14 14 14 15 15 16 16 17 17 17 17 15 12 13 15 18 15 16
13 18 20 30 29 28 29 29 28 28 28 24 22 4 5 6 7 6 6 8 10 10 12 13 14 14 15 14 14 16 16 16 16 16 15 11 13 13 16 16 15 16 16
15 14 18 26 28 27 28 28 28 28 27 26 23 22 7 5 7 10 3 6 8 9 11 12 13 15 14 13 14 16 16 14 12 12 10 11 11 13 15 14 15 17 17
9 10 12 25 28 27 27 28 28 27 26 25 25 22 19 9 6 13 7 4 8 7 3 8 13 15 13 13 14 15 14 13 12 9 11 10 9 12 13 14 15 14 13
8 11 14 22 26 27 27 27 27 27 26 25 24 23 20 19 4 14 8 5 11 12 4 2 6 12 12 12 13 13 12 11 10 8 12 10 8 12 11 11 16 16 17
11 10 14 25 25 26 26 27 26 27 28 26 26 24 23 20 18 12 14 17 17 16 15 13 12 13 12 11 12 11 11 9 8 11 11 8 10 11 12 17 17 16 15
14 14 15 20 26 20 24 24 26 26 27 27 26 26 23 22 17 16 4 11 15 16 14 11 11 13 14 10 11 11 9 11 14 13 13 7 11 12 14 16 16 16 15
14 14 14 16 17 23 15 22 24 26 26 25 25 25 23 20 19 14 13 9 4 15 17 11 13 14 15 12 9 9 9 9 13 13 14 7 10 11 14 16 17 16 16
13 15 16 16 17 17 12 18 21 21 25 26 25 25 21 19 20 17 13 14 14 12 16 16 18 13 13 11 10 8 9 11 13 16 9 10 12 12 16 17 16 16 16
13 15 15 17 17 17 16 17 11 16 21 21 20 25 18 12 14 16 15 15 15 10 12 14 12 12 11 10 7 9 10 8 6 10 9 14 12 13 16 16 16 16 16
15 17 16 16 18 16 14 16 14 7 9 10 13 15 13 13 12 14 14 16 14 6 9 10 11 12 12 5 4 7 8 7 9 9 9 13 11 15 15 16 16 16 15
13 13 17 16 16 17 15 11 9 9 8 7 14 11 12 11 9 10 7 8 8 4 7 10 10 10 12 6 5 8 7 8 9 6 12 13 11 15 16 16 16 16 14
12 14 16 16 16 16 12 11 12 10 10 8 9 12 9 7 10 10 7 9 8 7 7 8 9 10 12 8 7 6 9 7 9 7 10 13 10 15 16 17 15 15 15
11 12 14 15 15 15 14 12 12 11 10 12 10 9 9 8 10 10 9 7 7 7 9 8 5 7 8 8 4 4 8 12 15 7 8 12 10 13 16 17 15 15 16
11 10 12 14 15 16 13 15 12 10 11 10 9 11 13 10 8 10 10 8 7 7 9 8 6 7 7 6 5 3 6 11 11 6 9 9 9 11 14 16 15 16 17
9 9 12 12 14 16 15 14 11 10 11 9 9 9 13 12 10 10 9 9 7 8 10 8 8 7 9 7 7 5 4 12 4 11 9 9 9 7 10 10 13 16 17
10 8 11 10 13 16 16 12 10 10 11 9 8 7 12 11 11 9 8 8 9 7 7 7 6 8 8 9 6 5 4 10 8 12 10 8 10 8 8 11 11 14 16
10 9 9 10 12 14 17 12 12 12 10 9 8 8 10 13 9 9 8 8 9 7 6 7 7 2 6 7 8 7 6 8 9 8 11 11 10 10 9 12 10 11 13
12 11 9 9 12 12 12 11 10 10 10 9 8 8 9 9 12 10 7 9 9 7 7 8 10 4 4 4 3 10 8 11 7 6 8 9 9 11 10 14 10 8 11
12 9 10 10 10 10 11 11 11 10 11 9 8 10 9 8 12 10 8 8 9 8 8 9 9 8 7 4 2 4 2 6 11 7 6 6 9 8 10 9 9 7 7
11 10 7 8 9 11 10 10 10 9 10 10 8 10 7 7 9 10 10 8 10 8 8 8 9 7 7 11 7 0 3 4 5 8 6 7 9 8 8 11 13 15 13
13 8 6 7 9 10 11 8 9 9 8 8 9 9 9 8 6 9 10 9 10 8 6 7 8 11 3 9 14 6 3 6 7 6 8 7 9 6 9 9 9 12 11
11 8 5 8 9 8 10 10 11 10 10 9 10 8 9 8 5 8 9 10 9 7 8 6 7 8 7 3 10 7 2 2 8 6 7 9 8 10 9 8 7 10 10
12 9 5 8 8 11 8 9 9 11 10 10 9 11 10 7 10 9 10 10 8 7 9 9 8 8 6 6 4 8 4 3 2 2 7 8 9 8 8 8 10 8 9
8 10 6 8 10 8 8 9 11 12 12 11 10 9 12 11 8 10 10 9 8 8 9 8 9 9 8 8 6 8 8 7 9 8 3 10 11 11 8 7 8 9 8
Wind_Direction
334 329 339 334 348 356 4 7 7 5 2 357 214 199 177 167 152 139 143 142 143 158 142 136 130 130 123 112 103 97 94 95 97 99 97 99 102 102 101 109 123 99 106
328 325 339 333 347 357 4 7 12 9 11 9 359 214 190 178 165 161 158 157 150 148 137 139 132 131 128 116 110 106 105 105 109 108 107 105 103 97 85 66 77 99 103
341 329 345 338 347 358 5 8 12 11 13 14 5 303 242 203 184 164 153 142 140 142 143 145 140 134 126 120 115 116 116 120 123 132 139 121 104 100 88 85 95 109 103
351 353 331 350 352 1 5 7 12 11 13 13 11 7 306 240 194 114 233 138 128 131 139 153 146 136 129 122 121 123 127 131 144 161 130 110 113 111 104 111 112 112 105
3 350 330 355 359 4 5 9 10 10 10 11 12 7 7 327 114 100 53 97 122 60 117 148 141 130 131 126 128 131 142 158 165 180 106 110 110 114 118 123 126 128 109
358 10 350 359 7 3 7 9 9 9 8 10 9 8 360 5 152 141 144 241 121 165 88 147 160 135 133 133 136 144 166 178 179 98 97 109 107 118 128 108 104 101 103
358 8 5 4 6 7 9 8 8 8 8 6 6 7 6 8 11 159 159 217 188 169 175 176 182 156 137 139 144 157 188 190 188 129 103 117 112 124 118 120 115 109 111
11 7 17 2 4 8 10 8 10 8 7 6 4 4 5 3 4 14 24 206 201 170 156 189 173 170 139 146 154 171 209 222 180 131 118 128 116 131 124 121 114 115 116
21 18 10 9 7 355 19 8 13 11 6 6 2 3 360 357 3 3 348 355 254 176 165 196 203 174 153 157 166 185 215 260 267 116 124 125 139 140 139 134 127 127 123
25 15 16 10 6 360 359 8 10 14 11 2 359 2 358 356 358 350 347 341 333 181 178 206 217 177 159 156 167 190 225 261 260 98 100 114 150 145 142 141 134 133 127
20 15 15 12 6 358 354 354 20 15 17 358 1 1 353 357 348 346 335 336 328 203 208 199 179 179 149 150 170 194 230 222 176 117 113 133 155 143 148 142 135 132 129
14 11 6 18 5 359 355 355 353 38 24 13 0 2 355 338 352 338 338 339 340 180 183 184 189 151 160 151 183 213 226 244 84 113 114 145 161 148 141 144 139 137 137
9 18 2 10 7 2 351 355 351 347 352 31 3 8 359 343 355 346 339 339 338 214 203 195 195 194 175 166 189 231 223 265 115 105 135 144 163 161 147 148 147 138 142
7 20 4 6 5 2 348 356 345 344 351 355 18 0 2 349 351 340 344 340 329 337 263 196 191 199 175 179 181 263 241 249 125 120 148 144 160 170 159 159 156 149 146
3 20 8 357 9 0 354 351 342 341 351 335 2 13 359 351 348 346 339 337 326 336 325 291 221 200 156 156 135 231 286 267 121 133 148 148 153 165 161 164 160 152 155
342 13 3 355 10 358 356 348 335 340 340 340 358 360 356 355 351 350 336 334 335 350 327 309 296 187 158 157 163 217 276 293 130 146 140 154 166 167 172 169 172 159 163
321 12 350 355 5 355 352 344 335 335 330 335 345 9 358 350 357 335 336 334 342 332 312 304 281 234 165 176 169 182 258 282 240 143 133 142 167 175 182 176 177 169 169
321 354 335 359 350 352 344 338 335 334 322 331 341 11 355 350 346 346 330 336 335 325 313 306 284 204 184 178 159 192 211 263 249 144 146 151 167 173 180 176 169 170 173
316 323 315 342 349 352 333 333 330 331 322 328 330 345 12 341 351 348 329 333 330 319 320 309 297 264 179 182 174 188 200 252 198 225 152 168 165 168 181 171 175 173 181
303 309 320 330 348 339 325 328 331 329 328 324 327 359 354 350 340 343 338 338 332 330 331 333 317 228 179 178 278 187 185 251 213 194 156 161 175 173 203 162 175 179 173
276 296 307 324 334 334 330 337 331 335 324 320 323 340 338 15 338 342 352 329 334 330 325 326 309 263 180 150 42 261 276 244 265 185 185 178 171 164 142 166 175 183 184
279 277 269 299 346 333 336 332 320 333 318 316 320 319 342 4 352 341 343 340 328 323 322 336 336 297 220 169 200 213 213 239 244 264 166 196 169 175 187 169 173 183 190
297 291 292 311 332 338 330 326 325 323 321 326 332 317 350 342 10 342 346 340 332 323 327 338 316 330 258 181 192 168 159 213 188 209 204 205 172 177 181 205 211 199 197
319 331 339 332 323 328 332 332 329 313 327 331 308 325 313 341 22 9 341 346 329 337 334 330 341 310 308 302 174 180 155 169 187 180 203 212 203 191 180 188 202 213 205
324 316 20 327 316 346 320 333 325 328 326 321 318 332 319 327 54 2 342 351 353 334 331 333 340 331 322 281 277 179 188 177 121 193 191 194 204 204 187 188 192 202 224
322 336 21 311 341 316 333 328 320 325 323 321 330 344 343 351 0 350 348 343 356 333 336 329 342 323 314 301 309 197 185 184 189 191 181 190 202 193 207 203 195 190 209